Detroit, MI

2:23 AM EDT on April 24, 2017 (GMT -0400)
Detroit City

Weather History for KDET - January, 2013

Change the Weather History Date:

Sunday, January 27, 2013

  Actual Average Record
Temperature  
Mean Temperature 26 °F -  
Max Temperature 28 °F 30 °F 56 °F (1974)
Min Temperature 24 °F 18 °F -2 °F (1966)
Degree Days  
Heating Degree Days 39    
Moisture  
Dew Point 22 °F    
Average Humidity 83    
Maximum Humidity 93    
Minimum Humidity 64    
Precipitation  
Precipitation 0.30 in - - ()
Sea Level Pressure  
Sea Level Pressure 30.34 in    
Wind  
Wind Speed 5 mph (SSE)    
Max Wind Speed 18 mph    
Max Gust Speed 24 mph    
Visibility 6 miles    
Events Fog , Rain , Snow    
Averages and records for this station are not official NWS values.
T = Trace of Precipitation, MM = Missing Value Source: NWS Daily Summary

Daily Weather History Graph

Daily Weather History Graph

Search for Another Location

Airport or City:

Trip Planner

Search our weather history database for the weather conditions in past years. The results will help you decide how hot, cold, wet, or windy it might be!

Date:

Astronomy

Jan. 27, 2013 Rise Set
Actual Time 7:50 AM EST 5:39 PM EST
Civil Twilight 7:20 AM EST 6:10 PM EST
Nautical Twilight 6:46 AM EST 6:44 PM EST
Astronomical Twilight 6:13 AM EST 7:17 PM EST
Moon 6:35 PM EST (1/27) 7:40 AM EST (1/27)
Length of Visible Light 10h 49m
Length of Day
9h 49m
Full, 100% of the Moon is Illuminated
Jan 27
Full
Feb 3
Last Quarter
Feb 10
New
Feb 17
First Quarter
Feb 25
Full

Hourly Weather History & Observations

Time (EST) Temp. Windchill Dew Point Humidity Pressure Visibility Wind Dir Wind Speed Gust Speed Precip Events Conditions
12:53 AM - - - N/A% 30.44 in 10.0 mi Calm Calm - N/A   Clear
1:53 AM - - - N/A% 30.45 in 10.0 mi Calm Calm - N/A   Clear
2:53 AM - - - N/A% 30.45 in 9.0 mi Calm Calm - N/A   Clear
3:53 AM - - - N/A% 30.45 in 9.0 mi Calm Calm - N/A   Clear
4:53 AM - - - N/A% 30.45 in 8.0 mi Calm Calm - N/A   Clear
5:53 AM - - - N/A% 30.46 in 9.0 mi Calm Calm - N/A   Clear
6:53 AM - - - N/A% 30.47 in 8.0 mi Calm Calm - N/A   Clear
7:53 AM - - - N/A% 30.46 in 7.0 mi South 3.5 mph - N/A   Clear
8:53 AM - - - N/A% 30.46 in 10.0 mi South 6.9 mph - N/A   Clear
9:53 AM - - - N/A% 30.47 in 10.0 mi South 8.1 mph - N/A   Clear
10:53 AM - - - N/A% 30.48 in 10.0 mi South 8.1 mph - N/A   Clear
11:53 AM - - - N/A% 30.46 in 10.0 mi South 11.5 mph - N/A   Clear
12:53 PM - - - N/A% 30.45 in 10.0 mi South 8.1 mph - N/A   Overcast
1:53 PM - - - N/A% 30.42 in 10.0 mi South 8.1 mph - N/A   Overcast
2:53 PM 26.6 °F 18.2 °F 16.0 °F 64% 30.38 in 10.0 mi South 8.1 mph - N/A   Mostly Cloudy
3:53 PM 26.6 °F 17.5 °F 17.1 °F 67% 30.35 in 10.0 mi SSE 9.2 mph - N/A   Scattered Clouds
4:53 PM 26.6 °F 19.1 °F 17.1 °F 67% 30.35 in 10.0 mi SSE 6.9 mph - N/A   Overcast
5:53 PM 26.6 °F 17.5 °F 19.0 °F 73% 30.35 in 10.0 mi SSE 9.2 mph - N/A   Overcast
6:53 PM 26.6 °F 16.8 °F 18.0 °F 70% 30.36 in 8.0 mi South 10.4 mph - 0.00 in Snow Light Snow
7:14 PM 26.6 °F 18.2 °F 17.6 °F 69% 30.34 in 2.5 mi SSE 8.1 mph - 0.00 in Snow Light Snow
7:28 PM 26.6 °F 17.5 °F 17.6 °F 69% 30.32 in 1.0 mi SE 9.2 mph - 0.00 in Snow Light Snow
7:45 PM 26.6 °F 16.8 °F 17.6 °F 69% 30.33 in 1.0 mi SSE 10.4 mph - 0.02 in Snow Light Snow
7:53 PM 24.8 °F 16.1 °F 23.0 °F 93% 30.32 in 0.5 mi SSE 8.1 mph - 0.03 in Fog , Snow Snow
8:15 PM 24.8 °F 16.1 °F 23.0 °F 93% 30.32 in 1.0 mi SSE 8.1 mph - 0.02 in Snow Light Snow
8:53 PM 26.6 °F 18.2 °F 24.8 °F 93% 30.29 in 0.5 mi SE 8.1 mph - 0.05 in Fog , Snow Snow
9:39 PM 26.6 °F 16.2 °F 24.8 °F 93% 30.22 in 0.5 mi ESE 11.5 mph - 0.14 in Fog , Snow Snow
9:53 PM 26.6 °F 17.5 °F 24.1 °F 90% 30.23 in 2.0 mi SE 9.2 mph - 0.15 in Snow Light Snow
10:13 PM 26.6 °F 16.2 °F 24.8 °F 93% 30.22 in 3.0 mi SSE 11.5 mph 17.3 mph 0.01 in Snow Light Snow
10:29 PM 28.4 °F 19.7 °F 26.6 °F 93% 30.24 in 3.0 mi South 9.2 mph - 0.01 in Rain Light Freezing Rain
10:45 PM 28.4 °F 17.5 °F 26.6 °F 93% 30.20 in 3.0 mi SSE 13.8 mph 21.9 mph 0.01 in   Overcast
10:53 PM 28.4 °F 17.5 °F 26.6 °F 93% 30.18 in 3.0 mi SSE 13.8 mph - 0.01 in Snow Light Snow
11:18 PM 28.4 °F 19.1 °F 26.6 °F 93% 30.19 in 5.0 mi SSE 10.4 mph 17.3 mph 0.01 in Rain Light Freezing Rain
11:29 PM 28.4 °F 18.0 °F 26.6 °F 93% 30.17 in 4.0 mi South 12.7 mph - 0.03 in Rain Light Freezing Rain
11:37 PM 28.4 °F 15.8 °F 26.6 °F 93% 30.15 in 4.0 mi SSE 18.4 mph 24.2 mph 0.05 in Rain Light Freezing Rain
11:53 PM 28.4 °F 18.0 °F 26.1 °F 91% 30.16 in 6.0 mi SSE 12.7 mph 23.0 mph 0.06 in Rain Light Freezing Rain